This is the latest recevied weather packets stored in our database for station/object N5DGC. If no packets are shown the sender has not sent any weather packets the latest 10 day(s).
| Time | Temp. | Humidity | Pressure | Rain* | Wind** | Luminosity | Snow |
|---|---|---|---|---|---|---|---|
| 1777836816 | 21.11° C | 29% | 1238.3 hPa | 0 mm | - | 999 W/m² | - |
| 1777836512 | 21.11° C | 30% | 1238.7 hPa | 0 mm | - | 1007 W/m² | - |
| 1777836207 | 20.56° C | 30% | 1238.7 hPa | 0 mm | - | 1015 W/m² | - |
| 1777835904 | 20° C | 31% | 1238.8 hPa | 0 mm | - | 950 W/m² | - |
| 1777835601 | 20° C | 32% | 1238.7 hPa | 0 mm | - | 927 W/m² | - |
| 1777835297 | 20° C | 32% | 1238.8 hPa | 0 mm | - | 811 W/m² | - |
| 1777834995 | 19.44° C | 33% | 1238.8 hPa | 0 mm | - | 1020 W/m² | - |
| 1777834692 | 19.44° C | 35% | 1238.9 hPa | 0 mm | - | 939 W/m² | - |
| 1777834388 | 19.44° C | 35% | 1239.1 hPa | 0 mm | - | 554 W/m² | - |
| 1777834088 | 18.89° C | 34% | 1239.4 hPa | 0 mm | - | 677 W/m² | - |
| 1777833784 | 19.44° C | 32% | 1239.4 hPa | 0 mm | - | 690 W/m² | - |
| 1777833480 | 19.44° C | 34% | 1239.6 hPa | 0 mm | - | 654 W/m² | - |
| 1777833178 | 19.44° C | 35% | 1239.5 hPa | 0 mm | - | 787 W/m² | - |
| 1777832875 | 18.89° C | 35% | 1239.5 hPa | 0 mm | - | 857 W/m² | - |
| 1777832574 | 19.44° C | 36% | 1239.6 hPa | 0 mm | - | 634 W/m² | - |
| 1777832270 | 18.89° C | 35% | 1239.6 hPa | 0 mm | - | 750 W/m² | - |
| 1777831967 | 18.89° C | 34% | 1239.8 hPa | 0 mm | - | 617 W/m² | - |
| 1777831663 | 19.44° C | 35% | 1240.1 hPa | 0 mm | - | 647 W/m² | - |
| 1777831362 | 18.89° C | 37% | 1240.2 hPa | 0 mm | - | 791 W/m² | - |
| 1777831058 | 18.89° C | 37% | 1240.2 hPa | 0 mm | - | 769 W/m² | - |
| 1777830756 | 18.89° C | 38% | 1240.7 hPa | 0 mm | - | 733 W/m² | - |
| 1777830452 | 18.33° C | 37% | 1240.4 hPa | 0 mm | - | 781 W/m² | - |
| 1777830151 | 18.89° C | 37% | 1240.7 hPa | 0 mm | - | 684 W/m² | - |
| 1777829850 | 18.89° C | 38% | 1240.3 hPa | 0 mm | - | 708 W/m² | - |
| 1777829547 | 18.89° C | 38% | 1240.5 hPa | 0 mm | - | 743 W/m² | - |
* Rain latest hour (hover to see other rain measurements)
** Current wind speed in m/s (hover to see current wind gust speed)